.
WxDataArchive / Data Records for 2006-02-03
2006-02-02 February 2006 2006-02-04

Data Records for Friday, 03 February 2006

Time	Temp	Chill	HIndex	Humid	Dewpt	 Wind 	HiWind	WindDir	Rain 	Barom 
-----	----	-----	------	-----	-----	------	------	-------	-----	----- 
00:00	40.1	40.1	40.1	94	38.5	0	0	---	0.00	29.531 
00:05	40.1	40.1	40.1	94	38.5	0	0	---	0.01	29.531 
00:10	40.1	40.1	40.1	94	38.5	0	0	---	0.00	29.531 
00:15	40.1	40.1	40.1	94	38.5	0	0	---	0.01	29.528 
00:20	40.1	40.1	40.1	94	38.5	0	0	---	0.00	29.528 
00:25	40.1	40.1	40.1	94	38.5	0	1	90	0.01	29.528 
00:30	39.9	39.9	39.9	94	38.3	0	1	90	0.00	29.527 
00:35	39.9	39.9	39.9	95	38.6	0	1	68	0.00	29.527 
00:40	39.9	39.9	39.9	95	38.6	0	1	68	0.01	29.527 
00:45	39.9	39.9	39.9	95	38.6	0	1	68	0.00	29.527 
00:50	39.9	39.9	39.9	95	38.6	0	1	68	0.01	29.527 
00:55	39.9	39.9	39.9	95	38.6	0	1	68	0.00	29.527 
01:00	39.9	39.9	39.9	95	38.6	0	2	68	0.01	29.522 
01:05	39.9	39.9	39.9	95	38.6	0	1	68	0.01	29.522 
01:10	39.9	39.9	39.9	95	38.6	0	1	68	0.00	29.522 
01:15	39.9	39.9	39.9	95	38.6	0	1	68	0.01	29.517 
01:20	39.8	39.8	39.8	95	38.5	0	1	68	0.00	29.517 
01:25	39.8	39.8	39.8	95	38.5	0	1	68	0.01	29.517 
01:30	39.8	39.8	39.8	95	38.5	0	1	68	0.00	29.514 
01:35	39.8	39.8	39.8	95	38.5	0	0	---	0.00	29.514 
01:40	39.8	39.8	39.8	95	38.5	0	2	68	0.00	29.514 
01:45	39.8	39.8	39.8	95	38.5	0	1	68	0.00	29.513 
01:50	39.8	39.8	39.8	95	38.5	0	1	68	0.01	29.513 
01:55	39.8	39.8	39.8	95	38.5	0	1	68	0.00	29.513 
02:00	39.8	39.8	39.8	95	38.5	0	1	68	0.00	29.511 
02:05	39.8	39.8	39.8	95	38.5	0	1	68	0.00	29.511 
02:10	39.6	39.6	39.6	95	38.3	0	1	68	0.00	29.511 
02:15	39.6	39.6	39.6	95	38.3	0	1	68	0.00	29.509 
02:20	39.6	39.6	39.6	95	38.3	0	2	68	0.00	29.509 
02:25	39.6	39.6	39.6	95	38.3	0	1	68	0.00	29.509 
02:30	39.6	39.6	39.6	95	38.3	0	2	68	0.01	29.514 
02:35	39.6	39.6	39.6	95	38.3	0	1	68	0.00	29.514 
02:40	39.6	39.6	39.6	95	38.3	0	1	68	0.00	29.514 
02:45	39.5	39.5	39.5	95	38.2	0	1	68	0.00	29.512 
02:50	39.5	39.5	39.5	95	38.2	0	2	68	0.00	29.512 
02:55	39.5	39.5	39.5	95	38.2	0	1	68	0.00	29.512 
03:00	39.5	39.5	39.5	95	38.2	0	0	---	0.00	29.519 
03:05	39.5	39.5	39.5	95	38.2	0	0	---	0.00	29.519 
03:10	39.5	39.5	39.5	95	38.2	0	1	68	0.00	29.519 
03:15	39.5	39.5	39.5	95	38.2	0	1	68	0.00	29.515 
03:20	39.3	39.3	39.3	95	38.0	0	1	68	0.00	29.515 
03:25	39.2	39.2	39.2	94	37.6	1	2	68	0.00	29.515 
03:30	39.1	39.1	39.1	94	37.5	0	2	68	0.00	29.514 
03:35	39.1	39.1	39.1	94	37.5	0	2	45	0.00	29.514 
03:40	38.9	38.9	38.9	94	37.3	0	1	45	0.00	29.514 
03:45	38.9	38.9	38.9	94	37.3	0	1	45	0.00	29.524 
03:50	38.8	38.8	38.8	94	37.2	0	1	45	0.00	29.524 
03:55	38.8	38.8	38.8	94	37.2	0	1	45	0.00	29.524 
04:00	38.8	38.8	38.8	94	37.2	0	1	45	0.00	29.525 
04:05	38.6	38.6	38.6	94	37.0	0	1	45	0.00	29.525 
04:10	38.6	38.6	38.6	94	37.0	0	1	45	0.00	29.525 
04:15	38.6	38.6	38.6	94	37.0	0	2	292	0.00	29.528 
04:20	38.5	38.5	38.5	94	36.9	0	1	292	0.00	29.528 
04:25	38.3	38.3	38.3	94	36.7	0	1	292	0.00	29.528 
04:30	38.3	38.3	38.3	94	36.7	0	1	292	0.01	29.530 
04:35	38.3	38.3	38.3	94	36.7	0	1	292	0.00	29.530 
04:40	38.3	38.3	38.3	94	36.7	0	1	292	0.00	29.530 
04:45	38.2	38.2	38.2	94	36.6	0	1	292	0.00	29.527 
04:50	38.2	38.2	38.2	94	36.6	0	1	292	0.00	29.527 
04:55	38.2	38.2	38.2	94	36.6	0	1	292	0.00	29.527 
05:00	38.0	38.0	38.0	93	36.2	0	0	---	0.00	29.527 
05:05	37.8	37.8	37.8	93	36.0	0	0	---	0.00	29.527 
05:10	37.6	37.6	37.6	93	35.8	0	0	---	0.00	29.527 
05:15	37.6	37.6	37.6	93	35.8	0	0	---	0.00	29.526 
05:20	37.5	37.5	37.5	93	35.7	0	0	---	0.00	29.526 
05:25	37.5	37.5	37.5	93	35.7	0	0	---	0.00	29.526 
05:30	37.5	37.5	37.5	94	35.9	0	0	---	0.00	29.526 
05:35	37.5	37.5	37.5	93	35.7	0	0	---	0.00	29.526 
05:40	37.3	37.3	37.3	93	35.5	0	0	---	0.00	29.526 
05:45	37.2	37.2	37.2	93	35.4	0	0	---	0.00	29.531 
05:50	37.0	37.0	37.0	93	35.2	0	0	---	0.00	29.531 
05:55	36.9	36.9	36.9	93	35.1	0	0	---	0.00	29.531 
06:00	36.6	36.6	36.6	93	34.8	0	0	---	0.00	29.537 
06:05	36.5	36.5	36.5	93	34.7	0	0	---	0.00	29.537 
06:10	36.2	36.2	36.2	93	34.4	0	0	---	0.00	29.537 
06:15	35.9	35.9	35.9	93	34.1	0	0	---	0.00	29.546 
06:20	35.8	35.8	35.8	93	34.0	0	0	---	0.00	29.546 
06:25	35.6	35.6	35.6	93	33.8	0	0	---	0.00	29.546 
06:30	35.6	35.6	35.6	94	34.0	0	0	---	0.00	29.547 
06:35	35.6	35.6	35.6	94	34.0	0	0	---	0.00	29.547 
06:40	35.6	35.6	35.6	94	34.0	0	0	---	0.00	29.547 
06:45	35.6	35.6	35.6	94	34.0	0	0	---	0.00	29.556 
06:50	35.6	35.6	35.6	94	34.0	0	0	---	0.00	29.556 
06:55	35.8	35.8	35.8	94	34.2	0	0	---	0.00	29.556 
07:00	35.9	35.9	35.9	94	34.3	0	1	292	0.00	29.560 
07:05	36.0	36.0	36.0	94	34.4	0	0	---	0.00	29.560 
07:10	36.2	36.2	36.2	94	34.6	0	0	---	0.00	29.560 
07:15	36.3	36.3	36.3	95	35.0	0	1	292	0.00	29.565 
07:20	36.5	36.5	36.5	95	35.2	1	2	292	0.00	29.565 
07:25	36.6	36.6	36.6	95	35.3	0	0	---	0.00	29.565 
07:30	36.6	36.6	36.6	95	35.3	0	0	---	0.00	29.567 
07:35	36.5	36.5	36.5	95	35.2	0	0	---	0.00	29.567 
07:40	36.5	36.5	36.5	95	35.2	0	0	---	0.00	29.567 
07:45	36.5	36.5	36.5	95	35.2	0	1	338	0.00	29.587 
07:50	36.5	36.5	36.5	95	35.2	0	2	315	0.00	29.587 
07:55	36.8	36.8	36.8	95	35.5	1	2	315	0.00	29.587 
08:00	36.8	36.8	36.8	95	35.5	0	1	292	0.00	29.600 
08:05	36.9	36.9	36.9	95	35.6	0	1	292	0.00	29.600 
08:10	36.9	36.9	36.9	95	35.6	0	1	292	0.00	29.600 
08:15	36.8	36.8	36.8	95	35.5	0	1	292	0.00	29.603 
08:20	36.6	36.6	36.6	95	35.3	0	1	292	0.00	29.603 
08:25	36.5	36.5	36.5	95	35.2	0	0	---	0.00	29.603 
08:30	36.2	36.2	36.2	95	34.9	0	0	---	0.00	29.608 
08:35	36.0	36.0	36.0	94	34.4	0	0	---	0.00	29.608 
08:40	36.0	36.0	36.0	94	34.4	0	0	---	0.00	29.608 
08:45	35.9	35.9	35.9	95	34.6	0	0	---	0.00	29.617 
08:50	36.0	36.0	36.0	95	34.7	0	0	---	0.00	29.617 
08:55	36.2	36.2	36.2	95	34.9	0	1	292	0.00	29.617 
09:00	36.5	36.5	36.5	95	35.2	1	2	292	0.00	29.625 
09:05	37.0	37.0	37.0	95	35.7	1	3	248	0.00	29.625 
09:10	37.3	37.3	37.3	95	36.0	1	3	248	0.00	29.625 
09:15	37.5	37.5	37.5	95	36.2	2	5	248	0.00	29.629 
09:20	37.6	37.6	37.6	95	36.3	2	4	248	0.00	29.629 
09:25	37.6	37.6	37.6	95	36.3	2	6	248	0.00	29.629 
09:30	37.8	37.8	37.8	95	36.5	1	4	248	0.00	29.634 
09:35	38.0	38.0	38.0	95	36.7	1	5	248	0.00	29.634 
09:40	38.2	38.2	38.2	95	36.9	0	2	248	0.00	29.634 
09:45	38.2	38.2	38.2	95	36.9	1	3	248	0.00	29.628 
09:50	38.3	38.3	38.3	95	37.0	0	2	248	0.00	29.628 
09:55	38.5	38.5	38.5	95	37.2	0	2	248	0.00	29.628 
10:00	38.8	38.8	38.8	95	37.5	0	1	248	0.00	29.622 
10:05	38.9	38.9	38.9	95	37.6	0	2	248	0.00	29.622 
10:10	39.2	39.2	39.2	95	37.9	1	2	248	0.00	29.622 
10:15	39.6	39.6	39.6	95	38.3	0	2	135	0.00	29.612 
10:20	39.8	39.8	39.8	96	38.8	0	2	135	0.00	29.612 
10:25	39.8	39.8	39.8	95	38.5	1	3	135	0.00	29.612 
10:30	39.8	39.8	39.8	96	38.8	1	2	112	0.00	29.615 
10:35	40.1	40.1	40.1	96	39.1	0	2	112	0.00	29.615 
10:40	40.3	40.3	40.3	96	39.3	0	2	248	0.00	29.615 
10:45	40.8	40.8	40.8	96	39.7	1	2	270	0.00	29.616 
10:50	40.9	40.9	40.9	96	39.8	1	3	270	0.00	29.616 
10:55	40.9	40.9	40.9	96	39.8	1	4	270	0.00	29.616 
11:00	40.8	40.8	40.8	96	39.7	1	4	248	0.00	29.617 
11:05	40.9	40.9	40.9	96	39.8	1	2	248	0.00	29.617 
11:10	41.1	41.1	41.1	96	40.0	0	1	248	0.00	29.617 
11:15	41.1	41.1	41.1	96	40.0	0	2	248	0.00	29.614 
11:20	41.2	41.2	41.2	96	40.1	0	2	248	0.00	29.614 
11:25	41.3	41.3	41.3	96	40.2	1	2	248	0.00	29.614 
11:30	41.5	41.5	41.5	96	40.4	1	3	248	0.00	29.611 
11:35	41.8	41.8	41.8	96	40.7	1	4	248	0.00	29.611 
11:40	42.2	42.2	42.2	96	41.1	1	4	248	0.00	29.611 
11:45	42.3	42.3	42.3	95	41.0	1	4	248	0.00	29.617 
11:50	42.3	42.3	42.3	95	41.0	1	3	270	0.00	29.617 
11:55	42.3	42.3	42.3	95	41.0	2	6	248	0.00	29.617 
12:00	42.5	42.5	42.5	95	41.2	3	7	248	0.00	29.618 
12:05	42.6	42.6	42.6	94	41.0	2	7	248	0.00	29.618 
12:10	42.8	42.8	42.8	93	40.9	3	6	248	0.00	29.618 
12:15	42.9	42.9	42.9	92	40.7	2	4	248	0.00	29.617 
12:20	43.2	43.2	43.2	92	41.0	2	5	248	0.00	29.617 
12:25	43.3	43.3	43.3	91	40.9	1	4	248	0.00	29.617 
12:30	43.5	43.5	43.5	90	40.8	2	4	248	0.00	29.614 
12:35	43.6	43.6	43.6	89	40.6	2	6	270	0.00	29.614 
12:40	43.6	43.6	43.6	88	40.3	3	6	270	0.00	29.614 
12:45	43.6	43.6	43.6	88	40.3	2	5	248	0.00	29.614 
12:50	43.8	43.8	43.8	88	40.5	2	5	248	0.00	29.614 
12:55	43.8	43.8	43.8	87	40.2	2	7	248	0.00	29.614 
13:00	43.8	43.8	43.8	87	40.2	2	6	248	0.00	29.612 
13:05	43.8	43.8	43.8	86	39.9	3	7	248	0.00	29.612 
13:10	43.9	43.9	43.9	86	40.0	3	6	248	0.00	29.612 
13:15	43.9	41.8	43.9	86	40.0	4	9	248	0.00	29.617 
13:20	43.9	43.9	43.9	86	40.0	2	9	248	0.00	29.617 
13:25	43.9	43.9	43.9	86	40.0	3	5	248	0.00	29.617 
13:30	43.9	43.9	43.9	86	40.0	3	6	248	0.00	29.619 
13:35	43.9	43.9	43.9	86	40.0	3	5	248	0.00	29.619 
13:40	44.3	44.3	44.3	87	40.7	1	4	248	0.00	29.619 
13:45	44.5	44.5	44.5	86	40.6	2	7	248	0.00	29.620 
13:50	44.8	44.8	44.8	85	40.6	3	6	248	0.00	29.620 
13:55	44.9	44.9	44.9	86	41.0	3	6	248	0.00	29.620 
14:00	45.2	45.2	45.2	85	41.0	2	5	248	0.00	29.629 
14:05	45.1	45.1	45.1	84	40.6	3	6	248	0.00	29.629 
14:10	44.8	44.8	44.8	84	40.3	2	5	248	0.00	29.629 
14:15	44.5	42.5	44.5	83	39.7	4	10	248	0.00	29.631 
14:20	44.3	42.3	44.3	83	39.5	4	10	248	0.00	29.631 
14:25	44.2	42.2	44.2	83	39.4	4	13	248	0.00	29.631 
14:30	44.2	44.2	44.2	83	39.4	3	6	248	0.00	29.634 
14:35	44.3	44.3	44.3	83	39.5	3	6	248	0.00	29.634 
14:40	44.3	44.3	44.3	82	39.2	2	6	248	0.00	29.634 
14:45	44.3	44.3	44.3	82	39.2	2	7	248	0.00	29.635 
14:50	44.3	42.3	44.3	82	39.2	4	12	248	0.00	29.635 
14:55	44.6	42.6	44.6	81	39.1	4	11	270	0.00	29.635 
15:00	44.8	42.1	44.8	80	39.0	5	9	270	0.00	29.643 
15:05	44.9	42.2	44.9	80	39.1	5	17	270	0.01	29.643 
15:10	45.2	43.3	45.2	81	39.7	4	11	248	0.00	29.643 
15:15	45.5	42.9	45.5	78	39.0	5	10	248	0.00	29.648 
15:20	45.5	42.9	45.5	79	39.4	5	14	270	0.00	29.648 
15:25	45.5	43.7	45.5	80	39.7	4	9	248	0.00	29.648 
15:30	45.8	45.8	45.8	80	40.0	2	6	270	0.00	29.651 
15:35	45.8	45.8	45.8	78	39.3	3	7	248	0.00	29.651 
15:40	45.7	45.7	45.7	78	39.2	2	4	248	0.00	29.651 
15:45	45.7	45.7	45.7	78	39.2	2	9	248	0.00	29.661 
15:50	45.7	43.9	45.7	76	38.6	4	11	270	0.00	29.661 
15:55	45.7	43.9	45.7	76	38.6	4	7	248	0.00	29.661 
16:00	45.7	45.7	45.7	76	38.6	3	7	248	0.00	29.664 
16:05	45.7	45.7	45.7	75	38.2	2	6	248	0.00	29.664 
16:10	45.7	43.9	45.7	76	38.6	4	7	248	0.00	29.664 
16:15	45.7	45.7	45.7	76	38.6	3	6	248	0.00	29.665 
16:20	45.7	45.7	45.7	75	38.2	2	7	248	0.00	29.665 
16:25	45.4	45.4	45.4	74	37.6	3	9	270	0.00	29.665 
16:30	45.4	45.4	45.4	74	37.6	3	9	248	0.00	29.678 
16:35	45.5	45.5	45.5	74	37.7	3	6	248	0.00	29.678 
16:40	45.5	43.7	45.5	73	37.4	4	10	270	0.00	29.678 
16:45	45.4	43.6	45.4	73	37.3	4	9	248	0.00	29.687 
16:50	45.4	45.4	45.4	73	37.3	3	6	248	0.00	29.687 
16:55	45.2	45.2	45.2	74	37.4	2	6	270	0.00	29.687 
17:00	45.1	45.1	45.1	74	37.3	3	7	248	0.00	29.695 
17:05	45.1	45.1	45.1	75	37.7	2	7	225	0.00	29.695 
17:10	44.9	44.9	44.9	75	37.5	2	5	248	0.00	29.695 
17:15	44.8	44.8	44.8	76	37.7	2	5	248	0.00	29.704 
17:20	44.8	44.8	44.8	75	37.4	3	7	248	0.00	29.704 
17:25	44.6	44.6	44.6	75	37.2	2	5	248	0.00	29.704 
17:30	44.6	44.6	44.6	75	37.2	3	9	248	0.00	29.708 
17:35	44.6	44.6	44.6	75	37.2	2	5	248	0.00	29.708 
17:40	44.5	44.5	44.5	75	37.1	3	6	248	0.00	29.708 
17:45	44.5	44.5	44.5	76	37.4	3	7	248	0.00	29.714 
17:50	44.3	44.3	44.3	75	36.9	3	7	248	0.00	29.714 
17:55	44.2	44.2	44.2	75	36.8	3	7	248	0.00	29.714 
18:00	44.1	44.1	44.1	76	37.0	2	4	248	0.00	29.721 
18:05	43.9	43.9	43.9	76	36.8	1	5	248	0.00	29.721 
18:10	43.6	43.6	43.6	77	36.9	1	2	225	0.00	29.721 
18:15	43.3	43.3	43.3	77	36.6	1	2	248	0.00	29.728 
18:20	43.2	43.2	43.2	78	36.8	1	2	248	0.00	29.728 
18:25	43.2	43.2	43.2	78	36.8	1	3	248	0.00	29.728 
18:30	43.2	43.2	43.2	78	36.8	1	3	248	0.00	29.736 
18:35	43.2	43.2	43.2	78	36.8	1	3	248	0.00	29.736 
18:40	43.1	43.1	43.1	79	37.0	0	1	248	0.00	29.736 
18:45	43.1	43.1	43.1	79	37.0	0	0	---	0.00	29.741 
18:50	42.8	42.8	42.8	79	36.7	0	0	---	0.00	29.741 
18:55	42.3	42.3	42.3	80	36.6	0	0	---	0.00	29.741 
19:00	41.9	41.9	41.9	80	36.2	0	0	---	0.00	29.737 
19:05	41.5	41.5	41.5	81	36.1	0	0	---	0.00	29.737 
19:10	40.9	40.9	40.9	81	35.5	0	0	---	0.00	29.737 
19:15	40.5	40.5	40.5	82	35.4	0	0	---	0.00	29.745 
19:20	39.9	39.9	39.9	84	35.5	0	0	---	0.00	29.745 
19:25	39.3	39.3	39.3	85	35.2	0	0	---	0.00	29.745 
19:30	38.9	38.9	38.9	85	34.8	0	0	---	0.00	29.749 
19:35	38.5	38.5	38.5	84	34.1	0	0	---	0.00	29.749 
19:40	37.9	37.9	37.9	85	33.8	0	0	---	0.00	29.749 
19:45	37.5	37.5	37.5	85	33.4	0	0	---	0.00	29.749 
19:50	37.0	37.0	37.0	86	33.2	0	0	---	0.00	29.749 
19:55	36.8	36.8	36.8	88	33.6	0	1	248	0.00	29.749 
20:00	36.5	36.5	36.5	89	33.6	0	0	---	0.00	29.754 
20:05	36.2	36.2	36.2	89	33.3	0	0	---	0.00	29.754 
20:10	35.9	35.9	35.9	89	33.0	0	0	---	0.00	29.754 
20:15	35.8	35.8	35.8	90	33.2	0	0	---	0.00	29.757 
20:20	35.6	35.6	35.6	90	33.0	0	0	---	0.00	29.757 
20:25	35.5	35.5	35.5	91	33.1	0	0	---	0.00	29.757 
20:30	35.3	35.3	35.3	91	32.9	0	0	---	0.00	29.748 
20:35	35.0	35.0	35.0	91	32.6	0	0	---	0.00	29.748 
20:40	35.3	35.3	35.3	92	33.2	0	1	248	0.00	29.748 
20:45	35.6	35.6	35.6	92	33.5	0	1	248	0.00	29.750 
20:50	35.6	35.6	35.6	93	33.8	0	1	248	0.00	29.750 
20:55	36.0	36.0	36.0	93	34.2	0	2	248	0.00	29.750 
21:00	36.3	36.3	36.3	93	34.5	0	1	248	0.00	29.753 
21:05	36.3	36.3	36.3	93	34.5	0	1	248	0.00	29.753 
21:10	36.6	36.6	36.6	93	34.8	0	1	248	0.00	29.753 
21:15	36.6	36.6	36.6	92	34.5	0	0	---	0.00	29.750 
21:20	36.5	36.5	36.5	92	34.4	0	0	---	0.00	29.750 
21:25	36.5	36.5	36.5	92	34.4	0	0	---	0.00	29.750 
21:30	36.3	36.3	36.3	92	34.2	0	0	---	0.00	29.751 
21:35	36.3	36.3	36.3	93	34.5	0	0	---	0.00	29.751 
21:40	36.5	36.5	36.5	93	34.7	0	1	248	0.00	29.751 
21:45	36.9	36.9	36.9	92	34.8	1	2	248	0.00	29.744 
21:50	37.0	37.0	37.0	92	34.9	0	1	248	0.00	29.744 
21:55	37.2	37.2	37.2	91	34.8	0	2	248	0.00	29.744 
22:00	37.2	37.2	37.2	91	34.8	0	1	248	0.00	29.735 
22:05	37.2	37.2	37.2	91	34.8	0	1	248	0.00	29.735 
22:10	37.0	37.0	37.0	90	34.3	0	1	248	0.00	29.735 
22:15	37.0	37.0	37.0	90	34.3	0	0	---	0.00	29.738 
22:20	37.2	37.2	37.2	90	34.5	0	1	248	0.00	29.738 
22:25	37.2	37.2	37.2	90	34.5	0	0	---	0.00	29.738 
22:30	37.3	37.3	37.3	90	34.6	0	2	248	0.00	29.734 
22:35	37.6	37.6	37.6	89	34.7	1	2	158	0.00	29.734 
22:40	37.8	37.8	37.8	89	34.9	0	1	158	0.00	29.734 
22:45	38.0	38.0	38.0	89	35.1	2	7	248	0.00	29.750 
22:50	38.6	38.6	38.6	88	35.4	3	9	248	0.00	29.750 
22:55	39.1	39.1	39.1	88	35.9	2	4	248	0.00	29.750 
23:00	39.3	39.3	39.3	87	35.8	1	4	248	0.00	29.737 
23:05	39.6	39.6	39.6	87	36.1	1	4	248	0.00	29.737 
23:10	39.6	39.6	39.6	88	36.3	0	2	248	0.00	29.737 
23:15	39.6	39.6	39.6	88	36.3	0	1	248	0.01	29.731 
23:20	39.5	39.5	39.5	89	36.5	0	0	---	0.00	29.731 
23:25	39.5	39.5	39.5	89	36.5	0	1	248	0.00	29.731 
23:30	39.5	39.5	39.5	90	36.8	0	0	---	0.00	29.727 
23:35	39.3	39.3	39.3	90	36.6	0	0	---	0.00	29.727 
23:40	39.2	39.2	39.2	91	36.8	0	0	---	0.00	29.727 
23:45	39.2	39.2	39.2	91	36.8	0	0	---	0.00	29.728 
23:50	39.1	39.1	39.1	91	36.7	0	0	---	0.00	29.728 
23:55	39.1	39.1	39.1	91	36.7	0	0	---	0.00	29.728 

CoCoRaHS
IN-AL-39
A2 Web Hosting
Creative Commons License
GoDaddy
Look for:

loaded 2017-10-16 18:23:27 • last modified 2010-11-18 10:43:29
Privacy PolicyDisclaimer
• wx.awcolley.com is powered by PmWiki v.2002016 •
• all content (unless otherwise noted) © 2017 A W Colley